Shelton, WA
on Thursday, November 22, 2012

Thursday
Previous Day Next Day
Daily Summary
 ActualAverage (KOLM)Record (KOLM)
Temperature
Mean Temperature °F 42°F  
Max Temperature 45°F 48°F 63°F (1957)
Min Temperature 30°F 35°F 2°F (1985)
Degree Days
Heating Degree Days 28 23  
Month to date heating degree days 457  
Since 1 July heating degree days 1251  
Cooling Degree Days 0 0  
Month to date cooling degree days 0  
Year to date cooling degree days 106  
Moisture
Dew Point 36°F   
Average Humidity 97    
Maximum Humidity 100    
Minimum Humidity 80    
Precipitation
Precipitation 0.07 in 0.30 in 2.87 in (1959)
Month to date precipitation 6.23  
Year to date precipitation 40.14  
Wind
Wind Speed 1 mph   
Max Wind Speed 6 mph   
Max Gust Speed mph   
Visibility 9 miles   
Events Rain   

Key: T is trace of precipitation, MM is missing value
Source: NWS Daily Summary
Time(PST)TemperatureDew PointHumidity Pressure Visibility Wind DirectionWind SpeedGust SpeedPrecipitationEvents Conditions
12:53 AM 30.9°F 30.9°F 100% 30.30 in 9.0 miles Calm Calm - N/A   Clear
1:03 AM 32.0°F 32.0°F 100% 30.28 in 10.0 miles Calm Calm - N/A   Partly Cloudy
1:53 AM 32.0°F 32.0°F 100% 30.30 in 10.0 miles Calm Calm - N/A   Partly Cloudy
2:23 AM 30.2°F 30.2°F 100% 30.29 in 4.0 miles Calm Calm - N/A   Scattered Clouds
2:26 AM 30.2°F 30.2°F 100% 30.29 in 2.5 miles Calm Calm - N/A   Mostly Cloudy
2:42 AM 30.2°F 30.2°F 100% 30.30 in 3.0 miles Calm Calm - N/A   Overcast
2:53 AM 32.0°F 32.0°F 100% 30.32 in 8.0 miles Calm Calm - N/A   Mostly Cloudy
3:10 AM 30.2°F 30.2°F 100% 30.31 in 10.0 miles Calm Calm - N/A   Scattered Clouds
3:53 AM 33.1°F 32.0°F 96% 30.32 in 10.0 miles Calm Calm - N/A   Partly Cloudy
4:53 AM 30.0°F 30.0°F 100% 30.34 in 10.0 miles Calm Calm - N/A   Mostly Cloudy
5:53 AM 32.0°F 32.0°F 100% 30.35 in 10.0 miles Calm Calm - N/A   Overcast
6:11 AM 33.8°F 33.8°F 100% 30.33 in 10.0 miles Calm Calm - N/A   Overcast
6:30 AM 35.6°F 33.8°F 93% 30.33 in 10.0 miles Calm Calm - N/A   Overcast
6:51 AM 35.6°F 35.6°F 100% 30.34 in 2.0 miles North 3.5 mph - N/A   Overcast
6:53 AM 35.1°F 35.1°F 100% 30.35 in 2.0 miles North 3.5 mph - N/A   Overcast
7:53 AM 35.1°F 35.1°F 100% 30.36 in 6.0 miles North 4.6 mph - N/A   Overcast
8:53 AM 37.0°F 37.0°F 100% 30.35 in 5.0 miles North 5.8 mph - N/A   Overcast
9:31 AM 37.4°F 37.4°F 100% 30.33 in 10.0 miles Calm Calm - N/A   Overcast
9:53 AM 37.9°F 37.9°F 100% 30.34 in 10.0 miles North 3.5 mph - N/A   Overcast
10:04 AM 37.4°F 37.4°F 100% 30.33 in 10.0 miles Calm Calm - N/A   Overcast
10:27 AM 39.2°F 39.2°F 100% 30.32 in 10.0 miles Calm Calm - N/A   Overcast
10:53 AM 39.9°F 39.0°F 97% 30.34 in 10.0 miles Calm Calm - N/A   Overcast
11:22 AM 41.0°F 39.2°F 93% 30.32 in 10.0 miles Calm Calm - N/A   Overcast
11:53 AM 41.0°F 41.0°F 100% 30.32 in 10.0 miles Calm Calm - N/A   Overcast
12:09 PM 42.8°F 41.0°F 93% 30.30 in 10.0 miles NE 4.6 mph - N/A   Overcast
12:53 PM 44.1°F 41.0°F 89% 30.31 in 10.0 miles Calm Calm - N/A   Overcast
1:53 PM 45.0°F 39.0°F 80% 30.31 in 10.0 miles Calm Calm - N/A   Overcast
2:53 PM 45.0°F 39.9°F 82% 30.29 in 10.0 miles Calm Calm - N/A   Overcast
3:53 PM 45.0°F 39.9°F 82% 30.29 in 10.0 miles Calm Calm - N/A   Overcast
4:53 PM 43.0°F 41.0°F 93% 30.27 in 10.0 miles Calm Calm - N/A   Overcast
5:53 PM 41.0°F 39.9°F 96% 30.26 in 10.0 miles Calm Calm - N/A   Partly Cloudy
6:53 PM 41.0°F 39.9°F 96% 30.24 in 10.0 miles Calm Calm - N/A   Overcast
7:53 PM 41.0°F 39.9°F 96% 30.22 in 10.0 miles Calm Calm - 0.00 in   Overcast
8:53 PM 41.0°F 39.9°F 96% 30.24 in 10.0 miles SSW 4.6 mph - N/A   Overcast
9:53 PM 41.0°F 39.9°F 96% 30.23 in 10.0 miles Calm Calm - 0.01 in Rain Light Rain
10:53 PM 41.0°F 41.0°F 100% 30.22 in 10.0 miles Calm Calm - 0.00 in Rain Light Rain
11:53 PM 41.0°F 41.0°F 100% 30.22 in 9.0 miles Calm Calm - 0.06 in Rain Light Rain
Moon Phase
Nov. 22 Nov. 28 Dec. 06 Dec. 13 Dec. 20
Sunrise:07:27 AM (PST) Moon Rise:01:36 PM (PST)11/22
Sunset:04:29 PM (PST) Moon Set:01:32 AM (PST)11/22

Copyright © 2014 The Weather Underground, Inc.